IK1YHX Weather Reports


Display with metric or nautical units.
time (UTC)temp
F
wind
direction
speed
MPH
gust
MPH
rain 1hr
in
rain 24hr
in
rain mn
in
humidity
%
barometer
mb
20260506194552 55 0 0.0 1.0 0.00 0.53 0.53 80 1014.7
20260506193535 55 270 0.0 1.0 0.00 0.53 0.53 79 1014.4
20260506192533 56 0.0 0.0 0.00 0.53 0.53 79 1014.3
20260506191541 56 0.0 0.0 0.00 0.53 0.53 79 1014.0
20260506190542 57 0 0.0 2.0 0.00 0.53 0.53 78 1013.9
20260506185541 57 0.0 0.0 0.00 0.53 0.53 78 1013.6
20260506184536 58 23 1.0 2.0 0.00 0.53 0.53 78 1013.4
20260506183528 59 0.0 0.0 0.00 0.53 0.53 76 1013.3
20260506182522 59 0 1.0 2.0 0.00 0.53 0.53 74 1012.9
20260506181522 61 23 1.0 2.0 0.00 0.53 0.53 73 1012.5
20260506180522 62 0.0 0.0 0.00 0.53 0.53 70 1012.3
20260506175545 64 14 1.0 2.0 0.00 0.53 0.53 69 1012.2
20260506174516 65 23 0.0 1.0 0.00 0.53 0.53 68 1012.1
20260506173604 66 0.0 0.0 0.00 0.53 0.53 67 1011.9
20260506172544 67 0.0 0.0 0.00 0.53 0.53 66 1011.7
20260506171547 68 31 1.0 1.0 0.00 0.53 0.53 65 1011.7
20260506170544 68 0.0 0.0 0.00 0.53 0.53 66 1011.7
20260506165545 68 23 1.0 2.0 0.00 0.53 0.53 66 1011.6
20260506164519 67 0.0 0.0 0.00 0.53 0.53 68 1011.6
20260506163520 66 23 0.0 1.0 0.00 0.53 0.53 67 1011.5
20260506162537 66 23 0.0 1.0 0.00 0.53 0.53 67 1011.5
20260506161519 67 0.0 0.0 0.00 0.53 0.53 66 1011.6
20260506160544 67 180 0.0 1.0 0.00 0.53 0.53 65 1011.5
20260506155524 67 46 1.0 2.0 0.00 0.53 0.53 67 1011.6
20260506154522 66 35 2.0 3.0 0.00 0.53 0.53 67 1011.6
20260506153524 65 23 1.0 2.0 0.00 0.53 0.53 67 1011.6
20260506152525 66 23 1.0 2.0 0.00 0.53 0.53 68 1011.6
20260506151516 66 23 1.0 2.0 0.00 0.53 0.53 67 1011.7
20260506150548 66 0.0 0.0 0.00 0.53 0.53 67 1011.6
20260506145539 66 70 2.0 2.0 0.00 0.53 0.53 66 1011.5
20260506144544 67 23 1.0 2.0 0.00 0.53 0.53 65 1011.6
20260506143542 68 86 3.0 4.0 0.00 0.53 0.53 64 1011.5
20260506142537 69 23 2.0 3.0 0.00 0.53 0.53 65 1011.6
20260506141559 68 158 0.0 1.0 0.00 0.53 0.53 67 1011.8
20260506140542 67 61 3.0 3.0 0.00 0.53 0.53 67 1011.8
20260506135601 66 23 4.0 4.0 0.00 0.53 0.53 68 1011.9
20260506134537 66 23 3.0 4.0 0.00 0.53 0.53 69 1012.0
20260506133518 65 17 2.0 2.0 0.00 0.53 0.53 68 1012.1
20260506132524 66 23 0.0 2.0 0.00 0.53 0.53 67 1012.2
20260506131529 67 23 1.0 2.0 0.00 0.53 0.53 69 1012.2
20260506130528 65 23 2.0 4.0 0.00 0.53 0.53 71 1012.2
20260506125530 65 23 2.0 3.0 0.00 0.53 0.53 70 1012.1
20260506124534 65 23 1.0 1.0 0.00 0.53 0.53 70 1012.2
20260506123543 65 97 2.0 3.0 0.00 0.53 0.53 70 1012.1
20260506122544 65 23 5.0 7.0 0.00 0.53 0.53 68 1012.0
20260506121535 66 23 4.0 6.0 0.00 0.53 0.53 67 1012.0
20260506120533 67 23 2.0 2.0 0.00 0.53 0.53 66 1012.0
20260506115552 69 23 4.0 6.0 0.00 0.53 0.53 65 1012.0
20260506114533 68 35 2.0 4.0 0.00 0.53 0.53 67 1012.1
20260506113533 68 80 2.0 5.0 0.00 0.53 0.53 68 1012.0
20260506112533 68 70 2.0 3.0 0.00 0.53 0.53 69 1012.1
20260506111535 67 24 3.0 4.0 0.00 0.53 0.53 71 1012.1
20260506110535 66 44 3.0 6.0 0.00 0.53 0.53 74 1012.2
20260506105534 22 33 3.0 4.0 0.00 0.53 0.53 34 1012.4
20260506104531 -1 23 3.0 6.0 0.00 0.53 0.53 10 1012.6
20260506103531 -1 23 2.0 4.0 0.00 0.53 0.53 10 1012.7
20260506102523 98 23 4.0 5.0 0.00 0.53 0.53 10 1012.7
20260506101542 58 109 2.0 3.0 0.00 0.53 0.53 10 1012.6
20260506100531 23 23 1.0 2.0 0.00 0.53 0.53 46 1012.7
20260506095535 68 23 2.0 3.0 0.00 0.53 0.53 46 1012.7
20260506094537 31 75 1.0 3.0 0.00 0.53 0.53 59 1012.9
20260506093537 98 120 2.0 2.0 0.00 0.53 0.53 10 1012.9
20260506092537 98 23 1.0 2.0 0.00 0.53 0.53 10 1012.9
20260506091539 98 23 2.0 3.0 0.00 0.53 0.53 10 1013.0
20260506090536 98 62 2.0 3.0 0.00 0.53 0.53 10 1013.0
20260506085538 95 23 2.0 6.0 0.00 0.53 0.53 99 1012.9
20260506084559 -18 113 3.0 4.0 0.00 0.53 0.53 99 1012.9
20260506083543 98 23 2.0 2.0 0.00 0.53 0.53 28 1012.8
20260506082544 98 158 1.0 2.0 0.00 0.53 0.53 10 1012.8
20260506081519 -19 274 1.0 1.0 0.00 0.53 0.53 99 1012.7
20260506080519 -18 225 1.0 2.0 0.00 0.53 0.53 99 1012.8
20260506072535 94 203 1.0 2.0 0.00 0.53 0.53 99 1013.0
20260506071604 98 0.0 0.0 0.00 0.53 0.53 10 1013.1
20260506070545 98 209 1.0 3.0 0.00 0.53 0.53 10 1013.1
20260506061537 98 0.0 0.0 0.04 0.53 0.53 10 1013.7
20260506060517 98 0.0 0.0 0.06 0.53 0.53 10 1013.7
20260506050524 98 0.0 0.0 0.35 0.47 0.47 10 1013.8
20260506044528 98 0.0 0.0 0.33 0.41 0.41 10 1013.9
20260506043543 98 0.0 0.0 0.33 0.37 0.37 10 1013.9
20260506042520 98 23 1.0 2.0 0.22 0.24 0.24 10 1014.0
20260506041523 98 13 1.0 1.0 0.12 0.14 0.14 10 1014.1
20260506040523 98 0.0 0.0 0.10 0.14 0.12 10 1014.0
20260506035527 98 23 2.0 2.0 0.08 0.14 0.10 10 1013.9
20260506034528 98 0.0 0.0 0.06 0.16 0.08 10 1014.1
20260506033525 98 0.0 0.0 0.02 0.12 0.04 10 1014.2
20260506032528 98 0.0 0.0 0.00 0.14 0.02 10 1014.3
20260506031530 98 0.0 0.0 0.00 0.14 0.02 10 1014.4
20260506025023 98 0.0 0.0 0.00 0.20 0.02 10 1014.8
20260506024024 98 0.0 0.0 0.00 0.24 0.02 10 1014.9
20260506023042 98 0.0 0.0 0.00 0.27 0.02 10 1014.9
20260506022020 98 0.0 0.0 0.00 0.27 0.02 10 1015.2
20260506021024 98 0.0 0.0 0.00 0.29 0.02 10 1014.9
20260506020134 98 0.0 0.0 0.00 0.31 0.02 10 1014.9
20260506015042 98 0.0 0.0 0.02 0.31 0.02 10 1015.2
20260506014124 98 0.0 0.0 0.02 0.31 0.02 10 1015.2
20260506013023 98 0.0 0.0 0.02 0.31 0.02 10 1015.2
20260506012024 98 0.0 0.0 0.02 0.31 0.02 10 1015.1
20260506011025 98 293 1.0 2.0 0.02 0.31 0.02 10 1015.3
20260506010137 98 0.0 0.0 0.02 0.31 0.02 10 1015.6
20260506005034 98 0.0 0.0 0.00 0.29 0.00 10 1015.9
20260506004214 98 0.0 0.0 0.00 0.29 0.00 10 1016.2
20260506003030 98 0.0 0.0 0.00 0.29 0.00 10 1016.5
20260506002035 98 0.0 0.0 0.00 0.29 0.00 10 1016.7
20260506001035 98 0.0 0.0 0.00 0.29 0.00 10 1017.0
20260506000042 98 0.0 0.0 0.00 0.31 0.00 10 1016.9
20260505235044 98 0.0 0.0 0.00 0.31 0.00 10 1016.8
20260505234016 98 239 1.0 2.0 0.00 0.31 0.00 10 1017.0
20260505233023 98 270 0.0 1.0 0.00 0.31 0.00 10 1017.0
20260505232044 98 0.0 0.0 0.00 0.31 0.00 10 1016.9
20260505231030 98 0.0 0.0 0.00 0.31 0.00 10 1017.1
20260505230039 98 0.0 0.0 0.00 0.31 0.00 10 1017.2
20260505225036 98 0.0 0.0 0.00 0.31 0.00 10 1017.3
20260505224035 58 0.0 0.0 0.00 0.31 0.00 10 1017.5
20260505223037 38 0.0 0.0 0.00 0.31 0.00 10 1017.5
20260505222036 48 0.0 0.0 0.00 0.31 0.00 10 1017.5
20260505221041 58 0.0 0.0 0.00 0.31 0.00 10 1017.6
20260505220017 38 270 0.0 1.0 0.00 0.31 0.00 10 1017.5
20260505215045 48 0.0 0.0 0.00 0.31 0.31 10 1017.5
20260505214016 58 270 0.0 1.0 0.00 0.31 0.31 10 1017.5
20260505213048 38 293 0.0 1.0 0.00 0.31 0.31 10 1017.8
20260505212018 88 0.0 0.0 0.00 0.31 0.31 10 1018.0
20260505211026 98 0.0 0.0 0.00 0.31 0.31 10 1018.0
20260505210110 38 0.0 0.0 0.00 0.31 0.31 10 1018.1
20260505205028 48 270 0.0 1.0 0.00 0.31 0.31 10 1018.1
20260505204026 58 270 1.0 2.0 0.00 0.31 0.31 10 1018.1
20260505203031 38 0.0 0.0 0.00 0.31 0.31 10 1018.1
20260505202037 68 0.0 0.0 0.00 0.31 0.31 10 1018.0
20260505201100 -1 248 1.0 2.0 0.00 0.31 0.31 10 1018.2
20260505200041 -1 0.0 0.0 0.00 0.31 0.31 10 1018.0
20260505195103 -1 0.0 0.0 0.00 0.33 0.31 10 1017.9